Location: ???????
(52.3000°N, 54.4667°E)
Time: 21:14:03
(UTC+00:00)

ARGOS - Pass Details

Date: 24 January 2020
Orbit: 821 x 834 km, 98.5° (Epoch: 17 February)

Event Time Altitude Azimuth Distance (km) Brightness Sun altitude
Exits shadow 16:20:31 56° 312° (NW) 981 3.6 -31.3°
Drops below altitude 10° 16:24:56 10° 341° (NNW) 2,446 5.9 -31.9°
Sets 16:27:19 0° 344° (NNW) 3,386 6.7 -32.3°
